Weather History for Charlottetown, PE

Change the Weather History Date:

Thursday, August 8, 2013

  Actual Average Record
Temperature  
Mean Temperature 65 °F -  
Max Temperature 76 °F 70 °F 86 °F (1998)
Min Temperature 54 °F 54 °F 53 °F (1999)
Growing Degree Days 15 (Base 50)    
Moisture  
Dew Point 56 °F    
Average Humidity 69    
Maximum Humidity 100    
Minimum Humidity 47    
Precipitation  
Precipitation 0.00 in 0.12 in - ()
Sea Level Pressure  
Sea Level Pressure 30.15 in    
Wind  
Wind Speed 5 mph ()    
Max Wind Speed 13 mph    
Max Gust Speed -    
Visibility 15.0 miles    
Events Rain    
Averages and records for this station are not official NWS values.
T = Trace of Precipitation, MM = Missing Value Source: Averaged Metar Reports

Daily Weather History Graph

Daily Weather History Graph

Search for Another Location

Airport:

Trip Planner

Search our weather history database for the weather conditions in past years. The results will help you decide how hot, cold, wet, or windy it might be!

Date:

Astronomy

Aug. 08, 2013 Rise Set
Actual Time 6:02 AM ADT 8:32 PM ADT
Civil Twilight 5:29 AM ADT 9:06 PM ADT
Nautical Twilight 4:46 AM ADT 9:48 PM ADT
Astronomical Twilight 3:57 AM ADT 10:36 PM ADT
Moon 7:55 AM ADT (8/8) 8:57 PM ADT (8/8)
Length of Visible Light 15h 37m
Length of Day
14h 29m
Waxing Crescent, 3% of the Moon is Illuminated
Aug 8
Waxing Crescent
Aug 14
First Quarter
Aug 20
Full
Aug 28
Last Quarter
Sep 5
New

Hourly Weather History & Observations

Time (ADT) Temp. Dew Point Humidity Pressure Visibility Wind Dir Wind Speed Gust Speed Precip Events Conditions
12:00 AM 59.0 °F 55.4 °F 88% 30.17 in 15.0 mi ESE 4.6 mph - N/A   Partly Cloudy
1:00 AM 59.0 °F 57.2 °F 94% 30.17 in 15.0 mi South 2.3 mph - N/A   Partly Cloudy
2:00 AM 55.4 °F 55.4 °F 100% 30.17 in 15.0 mi WSW 2.3 mph - N/A   Partly Cloudy
3:00 AM 55.4 °F 55.4 °F 100% 30.16 in 15.0 mi Calm Calm - N/A   Clear
4:00 AM 62.6 °F 59.0 °F 88% 30.16 in 15.0 mi WSW 5.8 mph - N/A   Clear
5:00 AM 60.8 °F 55.4 °F 82% 30.16 in 15.0 mi WSW 3.5 mph - N/A   Clear
6:00 AM 59.0 °F 57.2 °F 94% 30.17 in 15.0 mi SW 6.9 mph - N/A   Clear
7:00 AM 60.8 °F 57.2 °F 88% 30.18 in 15.0 mi WSW 5.8 mph - N/A   Mostly Cloudy
8:00 AM 64.4 °F 57.2 °F 77% 30.18 in 15.0 mi WSW 8.1 mph - N/A   Mostly Cloudy
9:00 AM 67 °F 55 °F 56% 30.17 in 15 mi SW 4.6 mph - -   Clear
9:00 AM 68.0 °F 55.4 °F 64% 30.17 in 15.0 mi SSW 4.6 mph - N/A   Mostly Cloudy
10:00 AM 69.8 °F 59.0 °F 68% 30.17 in 15.0 mi South 6.9 mph - N/A   Mostly Cloudy
11:00 AM 71.6 °F 55.4 °F 57% 30.17 in 15.0 mi SSW 6.9 mph - N/A   Mostly Cloudy
12:00 PM 71.6 °F 53.6 °F 53% 30.16 in 15.0 mi SSE 8.1 mph - N/A   Mostly Cloudy
1:00 PM 73.4 °F 55.4 °F 53% 30.15 in 15.0 mi SSW 9.2 mph - N/A   Mostly Cloudy
2:00 PM 75.2 °F 57.2 °F 53% 30.14 in 15.0 mi South 11.5 mph - N/A   Mostly Cloudy
3:00 PM 73.4 °F 59.0 °F 61% 30.13 in 15.0 mi South 12.7 mph - N/A   Mostly Cloudy
4:00 PM 73.4 °F 55.4 °F 53% 30.13 in 15.0 mi SW 9.2 mph - N/A   Mostly Cloudy
5:00 PM 75.2 °F 53.6 °F 47% 30.12 in 15.0 mi West 5.8 mph - N/A   Mostly Cloudy
6:00 PM 73.4 °F 51.8 °F 47% 30.13 in 15.0 mi WSW 4.6 mph - N/A   Mostly Cloudy
7:00 PM 71.6 °F 55.4 °F 57% 30.12 in 15.0 mi West 2.3 mph - N/A   Mostly Cloudy
8:00 PM 69.8 °F 55.4 °F 60% 30.12 in 15.0 mi SE 6.9 mph - N/A   Overcast
9:00 PM 70 °F 58 °F 57% 30.13 in 15 mi SSE 6.9 mph - -   Overcast
9:00 PM 69.8 °F 57.2 °F 64% 30.13 in 15.0 mi SSE 8.1 mph - N/A   Overcast
9:18 PM 69.8 °F 59.0 °F 68% 30.13 in 15.0 mi SSE 8.1 mph - N/A Rain Light Rain Showers
10:00 PM 69.8 °F 55.4 °F 60% 30.13 in 15.0 mi South 9.2 mph - N/A Rain Light Rain Showers
11:00 PM 66.2 °F 57.2 °F 73% 30.13 in 15.0 mi SSW 10.4 mph - N/A Rain Light Rain Showers
11:27 PM 66.2 °F 55.4 °F 68% 30.13 in 15.0 mi South 10.4 mph - N/A   Overcast